Portada
METAR-TAF:

METAR-TAF

Aeroports :

Broken Hill, Austràlia

latitud: 32-00-06S, longitud: 141-28-18E, altitud: 292 m

Observació

L'informe es va fer fa 1 hora i 14 minuts, a les 16:00 UTC
Vent 12 kt del Sud-Oest
Temperatura 13°C
Humitat 72%
Pressió 1016 hPa
Visibilitat 10 km o més

METAR: YBHI 161600Z AUTO 22012KT 9999 // NCD 13/08 Q1016

Hora: 03:44 (17:14 UTC)


TAF: manca

Observacions i pronòstics meteorològics de més de 4000 aeroports (METAR i TAF).

Les estacions disponibles són els punts grocs i vermells al mapa.

Posi el ratolí al punt desitjat per veure el nom de l'estació.

Feu clic per veure les observacions i els pronòstics meteorològics.

Per canviar el mapa: feu clic els botons verds amb una creu de color negre per apropar; al botó verd amb un guió per allunyar la imatge; o en les fletxes verdes per a mapes adjacents.


METAR-TAF: